Location: Ailingen
(47.6833°N, 9.5000°E)
Time: 13:35:21
(UTC+00:00)

BlueWalker 3 - Pass Details

Date: 18 November 2025
Orbit: 455 x 462 km, 53.2° (Epoch: 06 December)

Event Time Altitude Azimuth Distance (km) Brightness Sun altitude
Rises 18:12:33 0° 219° (SW) 2,476 6.0 -25.1°
Reaches altitude 10° 18:14:45 10° 212° (SSW) 1,606 4.9 -25.5°
Enters shadow 18:15:49 18° 204° (SSW) 1,220 4.1 -25.6°
